Los Alamitos, CA

9:22 PM PST on December 03, 2016 (GMT -0800)
Los Alamitos Army Air Field

Weather History for KSLI - July, 2013

Change the Weather History Date:

Saturday, July 13, 2013

  Actual Average Record
Temperature  
Mean Temperature 70 °F -  
Max Temperature 79 °F 77 °F 91 °F (1999)
Min Temperature 62 °F 65 °F 59 °F (2010)
Cooling Degree Days 6    
Growing Degree Days 20 (Base 50)    
Moisture  
Dew Point 59 °F    
Average Humidity 73    
Maximum Humidity 94    
Minimum Humidity 42    
Precipitation  
Precipitation 0.00 in - - ()
Sea Level Pressure  
Sea Level Pressure 29.93 in    
Wind  
Wind Speed 3 mph (SW)    
Max Wind Speed 12 mph    
Max Gust Speed -    
Visibility 9 miles    
Events      
Averages and records for this station are not official NWS values.
T = Trace of Precipitation, MM = Missing Value Source: NWS Daily Summary

Daily Weather History Graph

Daily Weather History Graph

Search for Another Location

Airport or City:

Trip Planner

Search our weather history database for the weather conditions in past years. The results will help you decide how hot, cold, wet, or windy it might be!

Date:

Astronomy

Jul. 13, 2013 Rise Set
Actual Time 5:51 AM PDT 8:04 PM PDT
Civil Twilight 5:23 AM PDT 8:32 PM PDT
Nautical Twilight 4:48 AM PDT 9:07 PM PDT
Astronomical Twilight 4:10 AM PDT 9:45 PM PDT
Moon 10:54 AM PDT (7/13) 11:06 PM PDT (7/13)
Length of Visible Light 15h 09m
Length of Day
14h 12m
Waxing Crescent, 26% of the Moon is Illuminated
Jul 13
Waxing Crescent
Jul 15
First Quarter
Jul 22
Full
Jul 29
Last Quarter
Aug 6
New

Hourly Weather History & Observations

Time (PDT) Temp. Dew Point Humidity Pressure Visibility Wind Dir Wind Speed Gust Speed Precip Events Conditions
12:58 AM 63.0 °F 60.6 °F 92% 29.95 in 10.0 mi NNW 1.2 mph - N/A   Clear
1:13 AM 62.6 °F 60.8 °F 94% 29.94 in 10.0 mi Calm Calm - N/A   Mostly Cloudy
1:58 AM 63.7 °F 61.5 °F 93% 29.95 in 10.0 mi WSW 2.3 mph - N/A   Overcast
2:56 AM 64.4 °F 62.6 °F 94% 29.93 in 10.0 mi SSW 3.5 mph - N/A   Overcast
2:58 AM 65.1 °F 62.1 °F 90% 29.94 in 10.0 mi SSW 3.5 mph - N/A   Overcast
3:58 AM 64.6 °F 61.7 °F 90% 29.94 in 10.0 mi SW 3.5 mph - N/A   Overcast
4:58 AM 64.4 °F 61.5 °F 90% 29.95 in 10.0 mi Variable 2.3 mph - N/A   Overcast
5:58 AM 64.4 °F 61.5 °F 90% 29.95 in 10.0 mi Calm Calm - N/A   Overcast
6:58 AM 65.1 °F 62.1 °F 90% 29.96 in 10.0 mi Variable 2.3 mph - N/A   Overcast
7:58 AM 65.5 °F 61.9 °F 88% 29.96 in 6.0 mi East 1.2 mph - N/A   Overcast
8:58 AM 66.7 °F 62.2 °F 85% 29.96 in 6.0 mi Variable 2.3 mph - N/A   Overcast
9:53 AM 69.8 °F 59.0 °F 68% 29.96 in 7.0 mi Calm Calm - N/A   Scattered Clouds
9:58 AM 70.2 °F 59.5 °F 69% 29.96 in 7.0 mi South 3.5 mph - N/A   Scattered Clouds
10:58 AM 73.4 °F 57.6 °F 58% 29.96 in 7.0 mi South 3.5 mph - N/A   Partly Cloudy
11:58 AM 75.7 °F 56.8 °F 52% 29.95 in 10.0 mi SSW 8.1 mph - N/A   Clear
12:58 PM 75.4 °F 55.9 °F 51% 29.94 in 10.0 mi SW 9.2 mph - N/A   Clear
1:58 PM 76.5 °F 55.8 °F 49% 29.93 in 10.0 mi SW 11.5 mph - N/A   Clear
2:58 PM 78.4 °F 55.8 °F 45% 29.91 in 10.0 mi South 10.4 mph - N/A   Clear
3:58 PM 78.4 °F 54.7 °F 44% 29.89 in 10.0 mi South 9.2 mph - N/A   Clear
4:58 PM 79.2 °F 54.5 °F 42% 29.88 in 10.0 mi South 9.2 mph - N/A   Clear
5:58 PM 79.0 °F 54.7 °F 43% 29.87 in 10.0 mi SSW 9.2 mph - N/A   Clear
6:58 PM 77.9 °F 54.9 °F 45% 29.88 in 10.0 mi SSW 5.8 mph - N/A   Clear
7:58 PM 73.2 °F 54.0 °F 51% 29.89 in 10.0 mi West 5.8 mph - N/A   Clear
8:58 PM 68.0 °F 62.1 °F 81% 29.90 in 10.0 mi WNW 6.9 mph - N/A   Clear
9:58 PM 67.1 °F 63.3 °F 88% 29.93 in 10.0 mi WNW 4.6 mph - N/A   Clear
10:58 PM 66.0 °F 62.8 °F 89% 29.93 in 10.0 mi NW 2.3 mph - N/A   Clear
11:58 PM 64.6 °F 62.4 °F 93% 29.93 in 10.0 mi West 4.6 mph - N/A   Clear